Theta_e
332 338 336 339 351 352 360 353 347 344 338 339 342 351 354 355 360 363 339 338 344 345 345 344 344 346 346 346 344 344 346 345 345 345 345 345 344 341 341 339 337 336 335 336 337 336 336 335 334
334 331 335 342 350 355 354 347 347 345 345 342 345 346 355 362 352 346 340 341 345 345 343 343 345 345 345 346 346 346 346 345 345 345 345 343 342 341 340 339 339 338 336 336 335 335 334 333 332
327 331 334 341 345 354 356 349 350 347 344 344 348 352 356 359 347 344 340 342 344 343 343 345 345 345 345 345 346 345 345 345 345 345 344 342 342 340 339 338 337 336 335 335 334 333 332 331 330
331 331 334 338 343 345 344 349 349 348 346 347 348 360 356 352 350 349 340 342 341 341 343 343 344 345 344 344 344 345 345 345 345 345 345 342 340 339 338 336 335 334 332 331 331 330 329 329 329
329 330 335 339 342 342 342 346 348 348 349 349 349 356 359 352 349 345 339 340 340 340 341 342 344 344 345 344 343 344 345 345 345 344 345 340 339 337 336 334 333 332 332 331 333 333 334 333 332
330 331 335 339 340 342 344 345 347 349 349 349 350 357 356 351 346 340 338 340 339 340 339 342 343 343 344 343 344 343 343 345 344 345 341 339 337 335 333 332 333 335 338 339 340 339 338 337 337
326 331 335 337 340 340 343 346 348 349 351 351 351 358 355 351 343 338 338 339 340 340 342 341 342 342 343 341 341 342 343 344 342 340 339 336 334 332 332 336 339 341 342 341 341 341 340 339 339
326 329 332 335 337 339 347 347 347 348 355 351 351 359 356 349 343 339 338 339 340 340 343 340 341 342 341 341 340 340 340 340 339 338 335 333 331 334 340 343 343 342 341 339 338 337 336 336 335
325 326 331 334 336 340 346 348 348 348 353 349 350 352 350 346 342 341 339 340 341 340 339 340 340 341 341 340 343 341 337 336 334 334 333 332 342 346 342 345 342 341 340 339 338 338 338 341 342
323 326 329 333 335 337 345 345 347 350 351 353 353 351 348 345 342 340 336 339 339 338 338 339 340 340 341 342 343 342 341 339 340 342 345 341 340 342 339 342 343 344 342 344 343 343 342 343 343
322 324 328 330 333 332 339 344 348 349 353 354 357 351 347 344 342 339 335 333 333 334 336 337 339 340 339 338 340 339 341 341 343 344 344 340 338 337 339 343 347 348 345 345 344 344 342 341 341
321 323 325 327 330 332 337 343 350 349 350 353 353 348 346 344 341 338 336 334 332 333 335 337 339 341 340 338 339 338 338 339 339 340 341 340 339 341 341 340 341 340 339 340 339 337 341 341 340
321 322 324 325 326 333 337 341 347 349 350 353 352 349 347 345 340 338 338 335 334 333 333 333 335 337 339 340 339 341 339 338 338 339 342 343 343 345 345 345 344 343 342 340 340 340 340 341 341
321 321 322 325 325 331 339 341 348 349 353 354 353 352 350 346 342 340 336 336 335 334 334 335 338 342 341 343 344 341 338 340 340 340 340 342 343 344 344 343 342 341 339 338 338 338 340 339 340
320 322 321 324 332 333 338 341 349 347 351 352 352 352 350 348 343 340 337 337 337 337 337 340 343 344 346 345 344 342 340 339 339 338 336 336 337 339 340 340 338 336 336 335 335 335 336 336 338
322 324 326 325 334 334 342 336 345 346 349 351 350 348 348 347 343 341 339 339 338 337 338 340 340 342 342 341 339 338 337 336 335 333 332 330 330 332 334 334 332 330 331 330 329 329 331 331 331
328 327 327 326 333 335 341 337 334 346 348 351 350 347 345 345 345 343 339 337 337 337 338 338 339 340 339 338 337 336 334 333 331 330 329 327 326 326 329 328 326 325 325 324 321 323 322 320 318
328 329 327 327 336 336 336 337 347 346 347 349 349 346 345 344 342 340 337 336 336 336 336 337 337 337 336 335 335 334 332 329 328 325 323 322 321 321 324 323 321 319 319 318 317 320 318 317 315
324 324 326 327 329 338 337 340 344 346 346 348 348 348 346 346 342 336 334 333 334 335 335 335 335 335 335 335 335 333 331 326 322 319 317 317 317 317 318 318 316 315 315 315 315 318 316 315 314
321 321 322 323 326 327 334 338 336 345 346 346 347 347 347 344 342 336 332 330 330 332 333 334 334 333 333 333 333 332 327 322 319 316 314 314 313 313 313 313 313 313 313 313 313 314 316 313 312
321 321 321 322 324 325 326 334 335 335 343 342 343 345 345 345 343 338 334 331 330 330 331 333 332 331 331 331 328 325 321 318 317 315 313 311 311 311 311 312 311 310 310 309 310 311 313 312 311
321 322 321 321 322 323 327 330 332 331 333 342 342 343 344 343 342 337 333 331 329 329 329 328 330 329 327 327 326 325 325 324 320 316 312 310 309 309 309 309 310 308 308 308 307 308 308 310 310
322 323 322 322 324 324 323 323 325 329 331 335 343 341 342 343 341 338 333 331 329 327 325 325 326 326 325 325 325 325 325 319 316 313 312 310 309 308 309 309 309 309 308 308 308 309 308 308 308
324 324 324 324 325 327 326 325 326 325 325 327 330 341 340 341 341 338 333 330 327 323 322 323 323 322 322 322 322 320 318 315 313 312 311 310 308 308 308 308 309 308 308 307 307 307 308 308 308
325 326 327 327 327 326 326 325 325 326 326 327 329 330 335 336 339 338 333 328 324 321 320 319 319 318 317 317 316 316 315 314 314 313 311 309 308 308 308 308 308 307 307 306 306 305 306 306 306
330 329 331 332 330 328 327 327 327 327 327 329 330 330 331 333 338 336 331 325 321 319 318 317 317 316 315 314 314 314 313 312 312 312 311 310 309 307 306 307 306 305 305 305 304 303 304 305 305
330 332 330 333 334 334 329 328 327 328 331 330 329 329 329 337 336 333 327 323 320 318 317 316 315 314 314 313 312 311 310 310 310 310 310 309 309 307 305 305 305 304 303 304 303 303 304 303 303
325 328 331 330 339 339 333 330 331 330 330 330 330 331 334 334 332 329 324 320 318 317 316 315 314 314 313 311 310 310 309 308 308 307 309 309 308 307 304 304 304 303 303 303 303 303 303 304 303
322 324 327 332 337 341 340 339 334 333 331 330 329 330 331 330 329 325 321 318 317 316 315 314 313 312 312 311 310 310 309 308 306 306 306 306 307 306 304 303 303 303 303 303 303 302 302 302 302
317 321 330 335 335 337 338 338 331 331 329 329 328 328 329 328 325 322 319 316 315 314 313 312 312 312 310 309 308 307 305 305 304 302 303 304 306 305 303 302 301 302 302 303 302 301 301 301 301
Wind_Speed
7 6 10 11 8 7 9 7 11 11 9 10 10 9 14 15 13 8 15 15 18 20 17 15 14 14 13 14 13 14 14 13 14 14 14 14 14 14 14 13 12 12 12 11 11 11 10 10 10
11 11 14 8 13 7 5 9 11 10 13 8 9 4 10 13 10 16 15 18 19 18 17 15 15 14 13 13 14 14 13 13 13 13 13 13 12 12 11 10 10 10 9 9 9 9 9 9 9
10 12 10 11 11 3 17 12 11 10 9 8 5 10 10 8 11 17 21 20 19 19 17 16 15 14 13 14 14 13 13 12 11 11 11 11 10 9 8 7 7 7 7 7 7 7 7 7 8
10 12 8 11 16 14 6 13 9 13 10 5 7 12 8 11 12 10 21 20 18 19 17 17 16 14 13 14 14 13 12 10 9 9 9 8 8 7 6 5 5 6 6 6 6 6 6 6 6
14 9 12 18 12 1 4 4 9 13 8 9 8 13 8 4 14 21 22 19 18 19 17 16 15 14 12 13 13 12 11 9 8 7 7 6 6 5 4 4 4 4 4 5 5 6 6 6 6
11 12 14 16 10 7 1 4 4 6 8 6 7 14 7 7 18 20 19 19 17 15 19 15 14 13 12 12 11 11 9 7 7 6 6 5 4 3 3 3 3 4 4 5 6 6 6 6 6
15 14 17 22 7 6 3 6 9 10 12 5 13 10 10 14 19 19 18 19 17 16 17 15 14 13 12 10 11 10 9 7 5 5 5 4 2 2 3 4 5 5 4 4 4 5 5 5 6
13 13 22 20 11 3 6 9 9 6 14 5 1 7 12 20 22 21 19 19 17 15 14 15 14 13 12 11 10 8 8 7 6 4 4 2 3 3 4 3 6 4 4 4 4 4 4 4 6
14 14 16 22 15 2 10 13 7 7 10 7 4 11 26 27 24 22 20 18 16 14 14 14 15 13 13 14 11 9 9 8 5 3 2 2 5 3 4 2 3 3 4 4 4 5 4 2 1
15 14 22 20 13 3 14 10 12 7 11 8 10 19 28 27 25 21 20 19 18 17 17 15 13 14 13 10 9 10 8 7 7 6 4 5 3 3 4 4 4 1 4 3 5 6 4 7 7
19 20 19 20 10 7 5 12 14 13 11 12 16 19 22 24 22 22 21 20 19 18 18 17 15 14 14 13 12 11 11 8 7 6 6 6 5 6 6 6 8 4 4 8 5 9 6 8 8
20 20 23 22 6 5 15 8 14 13 2 21 19 20 20 19 18 20 19 17 17 17 15 13 14 13 10 11 10 10 9 10 8 6 5 5 6 5 6 6 5 5 4 6 6 8 7 8 8
19 19 18 21 14 8 12 14 12 13 5 18 19 19 19 17 18 17 15 13 14 16 14 14 13 12 11 8 9 8 8 8 6 4 3 4 6 4 5 4 6 5 6 6 7 7 7 9 10
15 16 23 13 17 16 13 15 10 12 12 15 19 19 18 17 16 16 16 15 14 14 14 13 13 13 12 10 9 9 9 6 6 5 2 1 2 2 4 4 4 5 5 6 7 8 9 8 10
15 15 18 14 14 18 10 19 14 19 16 16 16 16 16 15 16 17 16 16 15 13 12 12 12 12 10 10 10 8 8 9 7 4 4 2 2 1 0 2 3 4 6 8 8 9 9 11 11
15 17 17 21 19 16 10 20 20 18 19 19 17 13 13 14 17 17 17 15 14 13 11 11 11 11 11 10 9 8 8 7 6 5 4 4 4 2 1 1 3 6 6 8 9 10 11 10 10
14 15 21 20 22 16 17 19 24 24 21 21 20 17 15 14 16 17 15 15 14 13 12 11 10 11 10 9 8 8 8 6 5 5 3 4 4 4 2 1 3 5 6 7 8 7 7 9 9
14 18 16 17 17 17 19 20 17 18 20 18 19 18 18 18 17 17 17 16 15 14 13 10 10 10 9 8 8 9 7 6 5 4 3 4 3 4 3 3 4 5 5 5 7 5 6 6 11
21 15 12 15 11 20 19 19 22 20 20 19 18 18 18 19 21 21 19 18 16 15 15 14 12 12 11 10 11 9 9 6 5 4 6 6 5 5 5 2 3 5 6 7 8 4 4 7 13
16 15 17 16 15 13 14 20 20 22 20 20 20 18 20 19 19 22 23 21 19 17 16 16 15 13 12 11 9 6 8 5 5 5 7 7 7 7 8 5 4 5 6 8 9 8 3 6 13
16 17 17 18 15 18 16 19 22 23 25 17 18 20 20 21 21 19 23 22 20 19 18 17 16 15 13 9 8 7 7 7 7 6 6 7 7 8 9 6 4 6 6 8 8 8 8 7 8
17 17 18 18 17 17 19 17 22 23 23 24 20 19 19 21 21 19 22 23 21 18 16 15 15 14 12 11 11 10 10 9 7 6 7 7 8 9 8 6 6 8 8 9 7 9 10 12 9
17 17 18 17 18 21 25 15 18 19 25 24 26 24 24 24 23 21 21 22 19 17 16 15 14 14 11 11 9 10 8 7 8 7 8 8 9 8 7 6 6 7 7 9 9 9 13 11 9
12 14 19 17 15 18 21 21 20 19 20 21 19 23 24 24 24 21 24 20 18 16 15 15 15 13 12 10 9 7 9 9 10 9 9 9 8 7 6 7 8 7 7 8 9 11 12 11 9
19 16 13 17 16 17 21 22 21 22 19 21 12 20 23 26 25 21 19 19 18 17 15 15 15 14 13 12 11 11 10 8 9 9 7 8 8 7 6 6 6 7 8 8 8 10 10 11 10
21 15 12 23 19 19 20 21 22 21 13 6 8 3 3 15 20 20 18 19 18 17 16 15 15 15 14 13 13 12 11 10 9 3 8 6 7 7 6 7 8 8 7 7 7 7 8 7 7
18 17 20 18 19 20 22 26 25 10 11 5 2 6 9 15 19 19 19 19 19 18 16 16 15 15 14 13 12 11 8 7 10 7 6 8 9 8 6 6 7 7 7 6 6 7 6 6 5
22 19 20 15 21 24 20 22 3 7 1 7 4 4 9 13 16 17 17 19 19 17 15 15 15 15 14 13 12 11 10 9 8 7 7 8 9 8 6 5 5 5 6 5 3 5 6 6 5
19 16 16 17 13 16 14 11 7 3 9 3 4 8 11 12 15 15 18 20 19 18 17 15 15 15 14 13 11 11 10 8 7 8 9 8 8 8 6 4 3 4 5 5 5 5 5 6 5
18 20 11 6 6 9 12 15 12 11 7 2 7 9 15 15 15 16 19 21 20 17 17 16 13 14 17 16 13 10 8 7 7 7 7 7 7 6 7 7 6 4 5 4 4 4 4 4 4
Wind_Direction
288 259 271 262 245 199 171 252 72 109 131 64 98 31 68 42 16 99 122 134 131 128 133 135 138 135 134 134 129 124 123 121 118 114 111 107 102 98 94 89 82 77 74 71 69 64 60 55 50
277 281 256 270 248 325 293 105 128 104 78 112 100 167 69 62 57 127 128 135 129 131 134 137 140 138 133 133 131 132 127 122 118 117 113 107 102 97 91 83 75 70 66 64 63 59 50 45 38
276 269 275 241 260 169 239 94 123 110 142 160 103 45 43 88 130 149 126 140 130 135 133 135 139 140 138 137 135 134 129 123 118 114 112 109 104 95 86 75 64 59 55 51 48 45 40 33 27
268 243 241 253 280 199 68 140 139 145 166 143 132 85 91 48 136 124 145 141 140 138 136 138 140 142 144 141 142 142 133 126 119 115 111 109 106 99 85 68 58 52 44 38 30 29 25 19 14
246 263 265 255 245 117 345 95 171 158 119 138 171 123 97 57 111 138 143 143 140 138 135 138 141 141 144 146 151 150 141 131 130 125 115 117 112 104 87 62 43 39 23 17 10 7 1 1 358
250 249 266 257 258 88 202 160 197 107 128 108 146 106 100 170 140 143 147 141 144 131 138 139 138 149 148 155 155 156 152 142 144 140 139 141 132 119 93 66 30 16 4 358 345 345 345 343 344
246 257 247 269 214 181 178 172 197 185 159 172 138 136 128 189 149 150 149 142 141 149 137 145 149 152 161 165 163 162 168 169 168 171 170 167 142 87 58 45 19 2 352 347 340 333 337 340 341
246 255 269 263 277 293 103 174 181 191 77 92 331 164 162 165 155 155 149 146 148 148 150 154 157 162 164 171 170 180 186 186 194 206 213 186 146 68 57 34 15 25 32 33 46 37 29 32 28
238 256 251 248 234 72 138 166 139 70 138 163 171 147 144 149 155 151 159 150 139 152 159 159 166 167 174 172 181 184 194 200 204 233 257 226 232 194 233 234 334 38 49 50 43 38 35 2 224
232 237 244 252 274 225 169 177 153 187 155 151 121 103 138 155 165 155 166 158 164 166 166 166 168 170 173 174 175 185 194 200 203 213 213 242 228 246 244 241 299 307 357 328 359 356 334 303 270
221 243 247 256 304 330 277 193 142 208 177 162 142 146 155 163 166 171 172 169 167 166 168 173 173 178 181 186 180 186 191 200 214 223 236 245 261 234 250 241 223 220 266 263 294 273 300 333 311
229 240 254 271 240 215 264 194 157 214 28 141 145 158 161 168 173 172 167 160 164 160 166 168 174 181 200 189 191 194 203 194 201 199 228 241 246 230 270 284 321 280 315 314 296 308 333 308 304
237 238 246 257 276 231 258 265 191 161 136 128 147 164 167 170 174 168 141 153 160 167 164 175 169 178 188 191 191 202 198 198 191 206 221 264 258 269 272 304 296 305 314 317 313 310 312 308 300
245 245 255 242 234 243 234 233 162 137 135 141 161 173 169 173 159 148 161 156 165 166 168 163 173 172 183 191 185 187 186 178 171 171 183 225 204 236 274 280 297 307 321 316 312 313 308 304 301
257 262 238 236 237 243 222 241 196 158 166 160 172 171 169 163 157 164 165 164 165 165 166 171 171 173 176 176 176 172 172 166 164 157 112 78 90 10 6 292 307 326 328 325 318 313 306 303 295
232 236 250 214 219 223 210 233 195 159 179 170 164 172 176 170 171 174 165 165 165 165 170 174 175 172 168 168 168 163 158 158 153 142 112 81 62 32 28 326 328 326 330 327 326 321 313 309 305
211 242 222 257 181 218 207 241 238 171 186 179 167 176 181 180 189 171 170 171 172 172 175 174 172 167 168 166 163 156 149 148 142 131 106 64 45 23 38 358 331 351 332 333 337 330 330 322 315
227 213 250 225 179 204 220 229 151 180 188 189 176 176 184 186 190 179 181 179 180 177 175 172 172 155 153 162 168 158 153 145 132 115 91 68 38 28 27 337 1 18 356 352 354 348 346 341 330
289 297 285 260 233 196 221 238 178 185 193 187 199 182 190 196 184 186 188 183 188 186 181 184 182 174 180 183 193 178 171 157 127 101 79 65 46 40 38 356 25 54 54 27 13 354 21 5 346
267 265 268 278 280 265 229 229 245 178 202 195 196 198 191 191 188 186 187 185 188 189 186 185 190 180 194 191 205 196 172 153 152 127 87 73 65 58 68 46 49 59 64 41 25 29 4 45 15
253 260 266 265 260 235 260 259 251 229 195 208 204 201 199 196 187 187 190 191 190 190 189 187 189 183 194 188 159 153 151 156 152 128 97 84 83 81 77 73 66 60 71 53 29 20 40 46 43
257 255 248 263 269 258 210 253 238 233 243 194 205 203 200 202 195 189 193 192 192 191 190 187 186 182 187 182 181 183 196 190 137 139 122 108 93 84 80 89 79 72 71 62 42 45 31 63 44
261 268 268 258 246 261 254 255 263 231 230 219 203 208 202 198 195 191 191 189 192 186 184 177 176 177 173 187 185 181 199 132 152 138 130 109 93 97 103 93 86 76 78 69 59 53 48 54 50
286 276 262 259 267 254 250 256 255 250 242 254 240 195 208 200 189 185 179 181 187 178 174 166 163 161 165 168 168 184 150 161 152 155 154 142 124 110 99 96 100 89 79 71 62 57 57 55 53
254 244 256 245 233 245 244 247 254 260 256 242 315 202 199 198 179 170 164 173 172 179 166 161 157 152 150 147 143 142 146 153 152 167 166 149 139 118 101 105 93 84 78 76 65 60 59 57 52
311 296 272 280 276 275 266 247 246 246 220 120 159 178 284 168 156 157 164 168 172 167 164 155 151 146 144 140 137 138 144 152 154 140 148 147 125 114 102 100 100 96 87 85 79 71 69 62 55
287 284 291 303 292 288 281 282 278 156 91 27 328 181 220 146 142 151 152 166 171 163 158 155 151 145 142 136 133 134 132 134 107 125 135 123 116 119 100 102 102 97 88 93 87 77 75 78 61
279 275 284 274 275 268 273 275 344 77 1 39 63 77 109 133 144 146 151 156 153 154 152 150 150 143 136 131 131 125 119 116 120 122 99 112 115 107 104 97 100 102 93 87 91 98 79 75 66
314 309 313 281 308 290 276 281 33 334 26 41 111 130 145 156 146 146 140 146 145 150 153 150 141 137 137 132 120 122 112 109 113 123 125 126 131 124 109 95 93 95 92 88 98 96 90 80 58
279 296 7 319 309 277 273 272 85 351 29 261 117 134 149 150 143 139 138 143 142 153 143 142 136 110 86 89 86 93 98 92 89 105 115 120 129 139 138 134 145 133 121 117 118 106 96 86 72